Weather reports worldwide

Advertisment
Genthin, Germany (10365): temperature & dewpoint: 15.06.2018 23:00:00 - 21.06.2018 23:00:00 (CEST)Genthin, Germany (10365): temperature 5cm & temperature -5cm: 15.06.2018 23:00:00 - 21.06.2018 23:00:00 (CEST)Genthin, Germany (10365): temperature -20cm & temperature -100cm: 15.06.2018 23:00:00 - 21.06.2018 23:00:00 (CEST)Genthin, Germany (10365): wind speed & gusts: 15.06.2018 23:00:00 - 21.06.2018 23:00:00 (CEST)Genthin, Germany (10365): wind direction: 15.06.2018 23:00:00 - 21.06.2018 23:00:00 (CEST)Genthin, Germany (10365): reduced air pressure: 15.06.2018 23:00:00 - 21.06.2018 23:00:00 (CEST)Genthin, Germany (10365): visibility: 15.06.2018 23:00:00 - 21.06.2018 23:00:00 (CEST)Genthin, Germany (10365): sunshine duration: 15.06.2018 23:00:00 - 21.06.2018 23:00:00 (CEST)Genthin, Germany (10365): precipitation: 15.06.2018 23:00:00 - 21.06.2018 23:00:00 (CEST)
Date & Time tt [°C] td [°C] tt 5cm [°C] tt -5cm [°C] tt -20cm [°C] tt -100cm [°C] ff [km/h] ff [kn] fx [km/h] fx [kn] dd ppp [hPa] vv [km] sd [min] rr [mm]
21.06.2018 23:00:00 12,3 5,9 11,2 17,1 21,6 17,7 14 7 34 18 W 1017,6 70 0 0,0
21.06.2018 22:00:00 13,1 5,3 12,0 18,3 21,9 17,7 16 8 42 23 WNW 1017,1 70 0 0,0
21.06.2018 21:00:00 14,0 5,8 13,0 20,0 22,2 17,7 22 12 41 22 WNW 1016,5 70 32 0,0
21.06.2018 20:00:00 14,8 6,3 14,9 21,6 22,3 17,7 18 10 41 22 NW 1016,0 70 17 0,0
21.06.2018 19:00:00 15,8 5,3 17,3 23,1 22,4 17,7 29 15 57 31 NW 1015,4 37 25 0,0
21.06.2018 18:00:00 16,8 5,8 18,1 24,1 22,4 17,7 30 16 53 29 WNW 1014,6 40 50 0,0
21.06.2018 17:00:00 15,8 6,6 17,9 22,7 22,5 17,7 26 14 52 28 W 1014,5 21 34 0,0
21.06.2018 16:00:00 15,6 8,3 17,8 21,9 22,6 17,7 29 16 64 35 WNW 1013,9 21 14 0,1
21.06.2018 15:00:00 16,1 12,4 15,5 23,7 22,8 17,7 20 11 38 21 WNW 1012,5 36 3 0,2
21.06.2018 14:00:00 13,8 12,4 14,1 22,6 22,9 17,7 13 7 43 23 WNW 1012,6 49 0 1,4
21.06.2018 13:00:00 14,6 13,5 14,7 25,5 22,7 17,7 21 11 59 32 WNW 1011,6 6 0 0,0
21.06.2018 12:00:00 18,7 11,9 20,9 28,4 22,3 17,7 34 18 63 34 NW 1009,8 25 8 0,0
21.06.2018 11:00:00 25,5 14,0 28,2 27,8 21,8 17,7 22 12 41 22 W 1008,3 25 52 0,0
21.06.2018 10:00:00 25,4 13,7 29,2 25,1 21,6 17,7 11 6 27 14 SW 1008,9 35 56 0,0
21.06.2018 09:00:00 23,8 13,4 27,0 22,5 21,5 17,7 11 6 22 12 WSW 1010,3 27 44 0,0
21.06.2018 08:00:00 20,8 14,1 21,5 20,6 21,6 17,7 7 4 15 8 WSW 1011,4 33 8 0,0
21.06.2018 07:00:00 18,5 13,9 18,7 19,3 21,9 17,7 4 2 9 5 SSW 1011,8 23 52 0,0
21.06.2018 06:00:00 15,9 13,3 15,2 18,6 22,3 17,7 5 3 10 6 SSW 1012,2 18 8 0,0
21.06.2018 05:00:00 14,7 12,7 10,5 19,0 22,7 17,7 5 3 7 4 SSW 1012,9 22 0 0,0
21.06.2018 04:00:00 14,2 12,2 11,2 19,7 23,1 17,6 5 3 7 4 W 1013,9 20 0 0,0
21.06.2018 03:00:00 16,1 13,3 14,4 20,1 23,5 17,6 6 3 11 6 SSW 1014,3 21 0 0,0
21.06.2018 02:00:00 14,1 12,5 11,4 20,9 24,0 17,6 0 0 6 3 N 1014,7 18 0 0,0
21.06.2018 01:00:00 15,2 13,0 12,0 21,9 24,4 17,6 0 0 5 3 N 1015,2 21 0 0,0
21.06.2018 00:00:00 16,7 12,5 13,1 23,2 24,8 17,6 3 1 4 2 SSW 1015,7 27 0 0,0
20.06.2018 23:00:00 19,1 13,2 14,4 25,0 25,1 17,7 2 1 9 5 WSW 1016,0 30 0 0,0
20.06.2018 22:00:00 23,6 14,1 20,3 26,9 25,3 17,7 6 3 14 8 WNW 1016,2 37 2 0,0
20.06.2018 21:00:00 26,1 13,5 24,9 29,1 25,4 17,7 8 4 18 10 WNW 1016,1 45 60 0,0
20.06.2018 20:00:00 27,6 13,4 28,4 31,0 25,2 17,7 10 6 28 15 W 1016,1 36 60 0,0
20.06.2018 19:00:00 27,9 14,0 29,9 32,3 24,9 17,7 11 6 26 14 W 1016,7 29 52 0,0
20.06.2018 18:00:00 27,9 14,0 31,4 33,1 24,4 17,7 12 7 31 17 WSW 1017,4 35 52 0,0
20.06.2018 17:00:00 28,1 13,6 32,5 32,9 23,9 17,7 14 8 29 15 SW 1018,1 25 40 0,0
20.06.2018 16:00:00 27,7 13,7 32,6 32,1 23,4 17,7 14 8 30 16 WSW 1018,8 31 38 0,0
20.06.2018 15:00:00 26,1 14,2 29,4 31,0 22,9 17,7 12 7 26 14 W 1019,7 39 18 0,0
20.06.2018 14:00:00 25,3 13,9 29,7 28,8 22,5 17,7 15 8 27 14 SSW 1020,3 31 4 0,0
20.06.2018 13:00:00 24,7 13,7 27,6 27,8 22,2 17,7 10 6 23 12 SW 1021,0 34 1 0,0
20.06.2018 12:00:00 23,7 14,7 25,9 26,8 21,8 17,7 8 4 20 11 SW 1021,7 23 0 0,0
20.06.2018 11:00:00 22,7 14,8 24,9 26,2 21,5 17,7 9 5 19 11 SSW 1022,1 29 3 0,0
20.06.2018 10:00:00 22,0 15,2 25,7 23,8 21,3 17,7 9 5 17 9 SSW 1022,5 16 1 0,0
20.06.2018 09:00:00 19,7 15,4 21,8 21,9 21,3 17,7 9 5 15 8 S 1022,9 13 0 0,0
20.06.2018 08:00:00 18,6 15,1 19,9 20,8 21,4 17,6 6 3 9 5 SSE 1023,1 13 0 0,0
20.06.2018 07:00:00 17,3 14,5 18,0 19,9 21,6 17,6 5 3 9 5 S 1023,1 15 0 0,0
20.06.2018 06:00:00 16,1 13,9 16,3 19,7 21,8 17,6 3 2 4 2 SSE 1023,3 18 0 0,0
20.06.2018 05:00:00 15,6 13,0 15,6 19,7 22,0 17,6 0 0 3 1 N 1023,2 22 0 0,0
20.06.2018 04:00:00 15,4 13,4 15,0 19,7 22,3 17,6 2 1 5 3 SSW 1023,2 21 0 0,0
20.06.2018 03:00:00 14,9 12,3 14,4 19,9 22,6 17,6 2 1 4 2 SW 1023,3 21 0 0,0
20.06.2018 02:00:00 15,7 13,5 14,6 20,2 23,0 17,6 2 1 6 3 W 1023,4 24 0 0,0
20.06.2018 01:00:00 15,8 13,7 13,6 20,8 23,3 17,6 3 2 8 4 WSW 1023,2 22 0 0,0
20.06.2018 00:00:00 17,9 14,3 15,4 21,8 23,7 17,6 6 3 8 5 SW 1023,1 31 0 0,0
19.06.2018 23:00:00 19,4 14,4 15,7 22,9 24,0 17,6 4 2 11 6 W 1022,9 39 0 0,0
19.06.2018 22:00:00 20,9 14,3 19,2 24,2 24,2 17,6 5 3 23 12 W 1022,3 55 0 0,0
19.06.2018 21:00:00 22,5 13,8 21,9 25,7 24,3 17,6 11 6 24 13 WNW 1021,9 60 29 0,0
19.06.2018 20:00:00 23,1 14,2 23,9 26,6 24,3 17,6 15 8 22 12 WNW 1021,8 40 8 0,0
19.06.2018 19:00:00 23,2 13,7 24,2 26,8 24,4 17,6 14 8 23 13 WNW 1021,9 44 0 0,0
19.06.2018 18:00:00 23,2 14,2 24,8 27,3 24,4 17,6 12 6 24 13 NNW 1021,8 49 1 0,0
19.06.2018 17:00:00 23,3 13,8 24,0 28,1 24,4 17,6 17 9 29 15 WNW 1021,7 50 0 0,1
19.06.2018 16:00:00 24,4 13,6 26,6 29,8 24,1 17,6 14 8 27 15 WNW 1021,4 38 0 0,0
19.06.2018 15:00:00 24,3 13,5 26,6 31,1 23,7 17,6 13 7 28 15 WNW 1021,2 48 21 0,0
19.06.2018 14:00:00 24,4 13,8 27,7 29,3 23,4 17,6 10 5 28 15 W 1021,0 36 8 0,0
19.06.2018 13:00:00 23,3 12,8 26,1 28,8 23,0 17,6 14 8 27 14 W 1021,0 35 1 0,0
19.06.2018 12:00:00 23,0 12,0 25,9 28,2 22,7 17,6 16 9 29 15 W 1021,0 44 0 0,0
19.06.2018 11:00:00 22,3 11,9 26,0 26,8 22,4 17,5 10 5 25 14 WSW 1020,8 33 0 0,0
19.06.2018 10:00:00 21,5 11,6 24,7 25,6 22,1 17,5 12 6 32 17 WSW 1020,6 36 44 0,0
19.06.2018 09:00:00 20,4 11,7 23,4 22,7 22,1 17,5 14 8 31 17 W 1020,7 16 58 0,0
19.06.2018 08:00:00 19,2 12,6 21,2 21,3 22,2 17,5 16 9 29 16 W 1020,7 16 60 0,0
19.06.2018 07:00:00 18,0 13,5 18,9 21,0 22,4 17,5 11 6 29 16 W 1020,7 19 26 0,0
19.06.2018 06:00:00 18,2 13,7 18,1 21,1 22,7 17,5 10 5 25 13 W 1020,0 30 0 0,0
19.06.2018 05:00:00 18,0 14,8 17,8 21,3 22,9 17,5 10 5 21 11 W 1019,7 31 0 0,0
19.06.2018 04:00:00 18,3 13,9 18,2 21,4 23,2 17,5 5 3 9 5 WSW 1019,4 44 0 0,0
19.06.2018 03:00:00 18,7 13,8 16,0 22,0 23,5 17,5 5 3 18 10 WSW 1019,3 49 0 0,0
19.06.2018 02:00:00 20,0 13,8 19,3 22,5 23,8 17,5 8 4 21 12 W 1019,6 51 0 0,0
19.06.2018 01:00:00 20,1 13,4 19,7 22,8 24,1 17,5 7 4 13 7 SW 1019,6 59 0 0,0
19.06.2018 00:00:00 19,1 12,4 18,7 23,2 24,4 17,5 5 3 9 5 SW 1019,6 55 0 0,0
18.06.2018 23:00:00 19,7 12,6 18,8 24,1 24,8 17,5 5 3 11 6 SW 1019,5 52 0 0,0
18.06.2018 22:00:00 20,6 12,2 19,3 25,3 25,1 17,5 3 2 10 5 SSW 1019,0 54 0 0,0
18.06.2018 21:00:00 22,1 12,4 21,1 26,9 25,3 17,5 7 4 22 12 W 1018,7 56 14 0,0
18.06.2018 20:00:00 23,1 12,2 23,4 28,5 25,3 17,5 12 7 24 13 WSW 1018,6 43 24 0,0
18.06.2018 19:00:00 23,5 12,0 25,2 29,9 25,3 17,5 13 7 27 15 WSW 1018,8 45 10 0,0
18.06.2018 18:00:00 23,3 11,9 25,6 31,7 25,1 17,5 15 8 28 15 SW 1019,1 49 4 0,0
18.06.2018 17:00:00 23,7 11,7 27,4 32,7 24,7 17,5 14 7 35 19 W 1019,1 50 15 0,0
18.06.2018 16:00:00 24,2 10,8 28,2 33,1 24,2 17,5 16 8 34 18 W 1019,1 48 24 0,0
18.06.2018 15:00:00 23,6 9,5 28,3 33,6 23,6 17,5 14 7 35 19 WSW 1019,4 33 22 0,0
18.06.2018 14:00:00 23,3 9,3 28,7 33,0 22,9 17,5 17 9 36 20 W 1019,7 39 42 0,0
18.06.2018 13:00:00 22,6 9,0 28,9 31,1 22,3 17,4 16 8 30 16 W 1019,8 28 49 0,0
18.06.2018 12:00:00 22,2 8,8 27,0 29,1 21,7 17,4 13 7 27 14 WSW 1019,9 36 43 0,0
18.06.2018 11:00:00 21,1 9,3 26,8 25,9 21,3 17,4 13 7 27 15 SW 1020,1 22 41 0,0
18.06.2018 10:00:00 19,7 10,5 23,8 23,8 21,2 17,4 9 5 21 11 W 1020,3 30 56 0,0
18.06.2018 09:00:00 18,5 10,3 21,4 21,2 21,2 17,4 8 4 18 10 W 1019,8 25 16 0,0
18.06.2018 08:00:00 17,2 10,4 18,3 20,2 21,3 17,4 8 5 16 9 W 1019,9 30 2 0,0
18.06.2018 07:00:00 16,3 10,1 16,9 19,3 21,6 17,4 8 4 14 8 W 1019,7 27 0 0,0
18.06.2018 06:00:00 15,6 9,6 14,8 19,3 21,8 17,4 6 3 12 6 W 1019,3 36 0 0,0
18.06.2018 05:00:00 15,6 9,3 15,3 19,4 22,2 17,4 6 3 11 6 WSW 1019,1 43 0 0,0
18.06.2018 04:00:00 15,5 9,2 15,2 19,4 22,5 17,4 7 4 15 8 W 1019,2 39 0 0,0
18.06.2018 03:00:00 15,0 8,9 13,8 19,7 22,9 17,4 7 4 11 6 W 1018,9 40 0 0,0
18.06.2018 02:00:00 16,0 8,8 13,6 20,8 23,3 17,3 6 3 12 6 W 1018,7 42 0 0,0
18.06.2018 01:00:00 17,6 8,7 16,7 21,6 23,7 17,3 6 4 16 9 W 1018,5 42 0 0,0
18.06.2018 00:00:00 18,3 8,3 17,3 22,4 24,1 17,3 9 5 19 10 W 1018,2 49 0 0,0
17.06.2018 23:00:00 18,8 8,0 17,7 23,4 24,4 17,3 6 3 11 6 WSW 1017,8 54 0 0,0
17.06.2018 22:00:00 19,9 8,1 18,4 24,8 24,7 17,3 5 3 19 11 W 1017,5 42 0 0,0
17.06.2018 21:00:00 21,1 8,2 20,5 26,5 24,9 17,3 10 6 25 14 WNW 1017,0 52 7 0,0
17.06.2018 20:00:00 22,1 7,9 22,3 28,4 24,9 17,3 18 10 34 18 WNW 1016,6 38 25 0,0
17.06.2018 19:00:00 23,7 7,3 25,7 30,0 24,8 17,3 17 9 34 18 WNW 1016,0 21 45 0,0
17.06.2018 18:00:00 23,2 7,9 25,0 31,0 24,5 17,3 24 13 38 20 NW 1015,9 31 37 0,0
17.06.2018 17:00:00 25,2 7,3 29,6 31,1 24,2 17,3 17 9 39 21 W 1015,6 25 33 0,0
17.06.2018 16:00:00 24,6 8,6 28,4 30,6 23,9 17,3 18 10 30 16 WNW 1015,3 34 11 0,0
17.06.2018 15:00:00 23,9 8,7 26,6 31,5 23,4 17,3 17 9 37 20 W 1015,1 32 17 0,0
17.06.2018 14:00:00 24,6 9,3 29,2 31,6 22,9 17,3 14 8 35 19 W 1015,1 28 49 0,0
17.06.2018 13:00:00 23,1 11,3 27,3 29,6 22,4 17,3 18 10 31 17 W 1015,3 17 20 0,0
17.06.2018 12:00:00 22,6 11,7 27,2 28,5 21,9 17,3 12 6 26 14 WNW 1015,4 24 30 0,0
17.06.2018 11:00:00 21,5 11,9 25,2 26,9 21,5 17,3 15 8 26 14 WNW 1015,5 27 23 0,0
17.06.2018 10:00:00 22,0 13,6 26,5 24,8 21,2 17,3 11 6 22 12 WNW 1015,4 36 41 0,0
17.06.2018 09:00:00 20,3 14,3 23,5 22,8 21,0 17,3 11 6 23 12 W 1014,9 30 51 0,0
17.06.2018 08:00:00 20,2 13,6 22,8 20,7 21,1 17,3 13 7 21 11 WNW 1014,4 21 54 0,0
17.06.2018 07:00:00 18,7 12,8 20,0 19,4 21,3 17,3 12 6 18 10 NW 1014,2 21 56 0,0
17.06.2018 06:00:00 17,3 12,1 16,7 19,0 21,6 17,3 9 5 16 9 W 1013,9 23 2 0,0
17.06.2018 05:00:00 16,8 11,4 15,4 19,2 21,9 17,3 7 4 15 8 S 1013,1 23 0 0,0
17.06.2018 04:00:00 17,2 11,3 16,5 19,3 22,3 17,2 6 4 15 8 S 1013,3 23 0 0,0
17.06.2018 03:00:00 16,3 11,4 15,0 19,4 22,7 17,2 8 4 13 7 S 1013,3 27 0 0,0
17.06.2018 02:00:00 14,2 10,4 11,3 20,1 23,1 17,2 6 4 11 6 S 1013,5 24 0 0,0
17.06.2018 01:00:00 15,3 11,0 11,3 21,1 23,6 17,2 4 2 7 4 S 1013,7 30 0 0,0
17.06.2018 00:00:00 16,0 10,3 12,2 22,4 23,9 17,2 0 0 6 3 N 1013,7 35 0 0,0
16.06.2018 23:00:00 18,2 10,9 14,3 24,0 24,2 17,2 3 1 8 5 S 1013,8 36 0 0,0
16.06.2018 22:00:00 22,2 11,2 19,7 25,6 24,4 17,2 4 2 7 4 S 1013,5 48 0 0,0
16.06.2018 21:00:00 25,1 10,2 23,5 27,2 24,5 17,2 4 2 13 7 S 1013,3 49 9 0,0
16.06.2018 20:00:00 26,5 9,9 27,0 28,3 24,5 17,3 6 3 18 10 SSW 1013,2 49 7 0,0
16.06.2018 19:00:00 26,4 10,4 27,2 29,5 24,4 17,3 7 4 20 11 SSW 1013,2 30 5 0,0
16.06.2018 18:00:00 26,5 9,8 28,0 30,4 24,2 17,3 8 4 22 12 SSW 1013,4 38 7 0,0
16.06.2018 17:00:00 26,9 10,3 30,0 30,5 23,9 17,3 9 5 24 13 S 1013,7 32 14 0,0
16.06.2018 16:00:00 26,2 10,6 28,7 30,7 23,5 17,3 8 4 18 10 S 1014,2 39 3 0,0
16.06.2018 15:00:00 25,7 10,2 28,3 31,6 23,0 17,3 11 6 28 15 SE 1014,6 31 19 0,0
16.06.2018 14:00:00 25,9 7,7 30,5 30,4 22,4 17,3 8 4 23 12 SSW 1015,2 38 2 0,0
16.06.2018 13:00:00 26,1 11,0 30,7 29,9 21,8 17,3 14 8 32 17 SE 1015,8 16 12 0,0
16.06.2018 12:00:00 24,8 11,9 29,9 28,2 21,2 17,3 13 7 24 13 SSE 1016,0 20 3 0,0
16.06.2018 11:00:00 24,3 11,8 28,7 26,2 20,8 17,3 13 7 22 12 ESE 1016,3 17 25 0,0
16.06.2018 10:00:00 22,9 13,3 26,4 23,9 20,5 17,3 9 5 16 9 SSE 1016,4 18 14 0,0
16.06.2018 09:00:00 21,5 13,1 24,3 21,7 20,5 17,3 6 3 11 6 SSE 1016,6 21 3 0,0
16.06.2018 08:00:00 19,3 13,1 21,3 19,9 20,5 17,2 5 3 9 5 SE 1016,7 22 18 0,0
16.06.2018 07:00:00 16,6 12,9 17,4 18,9 20,7 17,2 2 1 8 4 NNE 1016,7 20 0 0,0
16.06.2018 06:00:00 14,7 11,9 14,7 18,7 21,0 17,2 0 0 4 2 N 1016,8 22 0 0,0
16.06.2018 05:00:00 14,0 11,4 13,2 18,9 21,2 17,2 2 1 4 2 SW 1016,9 24 0 0,0
16.06.2018 04:00:00 14,8 12,0 14,6 19,3 21,5 17,2 3 2 4 2 SE 1017,1 23 0 0,0
16.06.2018 03:00:00 14,9 11,4 13,5 19,7 21,8 17,2 3 1 6 4 SE 1017,1 24 0 0,0
16.06.2018 02:00:00 15,1 11,4 14,0 20,3 22,1 17,2 0 0 3 2 N 1017,0 28 0 0,0
16.06.2018 01:00:00 16,4 11,9 14,9 21,0 22,4 17,2 2 1 3 1 SSE 1017,1 34 0 0,0
16.06.2018 00:00:00 16,8 12,0 16,5 21,6 22,6 17,2 3 2 5 3 ESE 1017,0 35 0 0,0
15.06.2018 23:00:00 17,6 11,9 16,8 22,2 22,9 17,2 2 1 4 2 WSW 1017,1 33 0 0,0

tt = temperature
td = dewpoint
tt 5cm = temperature 5cm
tt -5cm = temperature -5cm
tt -20cm = temperature -20cm
tt -100cm = temperature -100cm
ff = wind speed
fx = gusts
dd = wind direction
ppp = reduced air pressure
vv = visibility
sd = sunshine duration
rr = precipitation

Next stations